Meteo Giornale » Osservazioni meteo Stati Uniti (USA) » McKinley National Park
ore: 01:56 - Osservazioni Meteo McKinley National Park
Lat. 63° 44' N Lon. 148° 55' W Alt. 524 metri s.l.m.
5 °C
Coperto
Temp. 24 Ore
3 °C
6 °C
Nord
5.5 Km/h
Dew point 0 °C
Umidità 70 %
Visibilità 10 Km
Il sole sorge alle ore 06:41
Il sole tramonta alle ore 21:09
| Data e Ora | Cielo e Fenomeni | T °C | DP °C | Um. % | Pres. hPa | Vis. km | Vento km/h | |
|---|---|---|---|---|---|---|---|---|
| Oggi h: 01:56 | Coperto | 5 | 0 | 70 | 1010 | 10 | N 5.5 | |
| Oggi h: 00:56 | Coperto | 5 | 1 | 75 | 1010 | 10 | N 0 | |
| Ieri h: 23:56 | Coperto | 5 | 0 | 70 | 1010 | 10 | N 9.3 | |
| Ieri h: 22:56 | Coperto | 6 | 0 | 65 | 1010 | 10 | N 9.3 | |
| Ieri h: 21:56 | Coperto | 5 | 1 | 75 | 1010 | 10 | N 7.4 | |
| Ieri h: 20:56 | Coperto | 5 | 1 | 75 | 1010 | 10 | N 9.3 | |
| Ieri h: 19:56 | Coperto | 6 | 1 | 70 | 1009 | 10 | N 5.5 | |
| Ieri h: 18:56 | Pioggia | 4 | 2 | 86 | 1009 | 10 | O 11.1 | |
| Ieri h: 17:56 | Pioggia | 5 | 1 | 75 | 1009 | 10 | O 14.8 | |
| Ieri h: 16:56 | Pioggia | 5 | 1 | 75 | 1008 | 10 | O/SO 14.8 | |
| Ieri h: 15:56 | Coperto | 5 | 0 | 70 | 1008 | 10 | O/SO 16.7 | |
| Ieri h: 14:56 | Coperto | 6 | 1 | 70 | 1008 | 10 | N 9.3 | |
| Ieri h: 13:56 | Coperto | 5 | 0 | 70 | 1007 | 10 | O 16.7 | |
| Ieri h: 13:19 | Coperto | 4 | 1 | 80 | 1007 | 10 | N 9.3 | |
| Ieri h: 12:56 | Pioggia | 4 | 1 | 80 | 1007 | 10 | O 16.7 | |
| Ieri h: 11:56 | Pioggia | 3 | 1 | 86 | 1006 | 10 | O/SO 20.3 | |
| Ieri h: 10:56 | Pioggia | 4 | 1 | 80 | 1006 | 10 | N 11.1 | |
| Ieri h: 09:56 | Pioggia | 4 | 1 | 80 | 1005 | 10 | N 7.4 | |
| Ieri h: 09:40 | Pioggia | 4 | 1 | 80 | 1005 | 10 | N 0 | |
| Ieri h: 08:56 | Pioggia | 3 | 2 | 93 | 1004 | 10 | N 0 | |
| Ieri h: 07:56 | Pioggia | 3 | 1 | 86 | 1004 | 10 | N 5.5 | |
| Ieri h: 06:56 | Pioggia | 3 | 2 | 93 | 1004 | 10 | N 0 | |
| Ieri h: 06:51 | Pioggia | 3 | 2 | 93 | 1004 | 14 | N 0 | |
| Ieri h: 06:21 | Pioggia | 3 | 2 | 93 | 1004 | 10 | N 0 | |
| Ieri h: 05:56 | Pioggia | 3 | 2 | 93 | 1004 | 10 | N 7.4 | |
| Ieri h: 04:56 | Pioggia | 3 | 2 | 93 | 1004 | 10 | N 0 | |
| Ieri h: 03:56 | Pioggia | 4 | 2 | 86 | 1004 | 10 | N 5.5 | |
| Ieri h: 02:56 | Pioggia | 4 | 3 | 93 | 1004 | 10 | N 0 | |



